Information Storage

This is the current data collected from the Raspberry Pis. Data is sampled asynchronously. The server scripts process and synchronize the data before storage.


Time PV Temperature (F) Irradiance (W/m2) Die Temperature (F) PV Voltage (V) Forecasted Irradiance (W/m2) Forecasted Power (W)
4/15/17 05:44:04 41.14 0 49.44 0.53
4/15/17 05:39:04 39.6 0 49.21 0.13
4/15/17 05:34:05 40.1 0 49.1 0
4/15/17 05:29:05 38.79 0 49.16 0
4/15/17 05:24:05 36.74 0 49.1 0
4/15/17 05:19:06 35.31 0 49.04 0
4/15/17 05:14:06 34.19 0 49.16 0
4/15/17 05:09:06 32.63 0 49.27 0
4/15/17 05:04:06 34.72 0 49.27 0.13
4/15/17 04:59:07 34.61 0 49.27 0
4/15/17 04:54:07 35.29 0 49.38 0.26
4/15/17 04:49:07 35.05 0 49.49 0.26
4/15/17 04:44:08 35.62 0 49.38 0.39
4/15/17 04:39:08 35.9 0 49.61 0
4/15/17 04:34:08 36.14 0 49.49 0
4/15/17 04:29:08 35.85 0 49.61 0
4/15/17 04:24:09 36.08 0 49.66 0
4/15/17 04:19:09 35.89 0 49.78 0
4/15/17 04:14:09 37.66 0 49.72 0
4/15/17 04:09:19 36.27 0 49.78 0
4/15/17 04:04:10 34.86 0 49.78 0
4/15/17 03:59:18 36.05 0 49.94 0.66
4/15/17 03:54:10 34.36 0 49.94 0
4/15/17 03:49:11 34.49 0 50.22 0
4/15/17 03:44:11 34.04 0 50.17 0.39
4/15/17 03:39:11 33.71 0 50.17 0
4/15/17 03:34:12 34.53 0 50.17 0
4/15/17 03:29:12 33.15 0 50.11 0.13
4/15/17 03:24:12 34.31 0 50.17 0
4/15/17 03:19:17 34.63 0 50.11 0.26
4/15/17 03:14:16 34.5 0 50.06 0
4/15/17 03:09:13 34.08 0 50.11 0.26
4/15/17 03:04:13 33.93 0 50.17 0
4/15/17 02:59:14 34.49 0 50.22 0
4/15/17 02:54:14 34.57 0 50.28 0
4/15/17 02:49:19 33.11 0 50.17 0.26
4/15/17 02:44:14 34.69 0 50.34 0
4/15/17 02:39:15 35.33 24.4141 50.28 0
4/15/17 02:34:15 34.38 0 50.39 0
4/15/17 02:29:15 34.98 0 50.39 0
4/15/17 02:24:25 35.25 0 50.39 0
4/15/17 02:19:16 34.13 0 50.28 0
4/15/17 02:14:16 34.82 0 50.39 0
4/15/17 02:09:16 34.67 0 50.45 0
4/15/17 02:04:17 35.71 0 50.68 0.26
4/15/17 01:59:17 35.59 0 51.01 0.39
4/15/17 01:54:17 34.19 0 51.07 0
4/15/17 01:49:17 35.37 0 51.18 0.13
4/15/17 01:44:18 35.57 0 51.29 0
4/15/17 01:39:18 35.02 0 51.29 0
4/15/17 01:34:23 35.19 0 51.29 0
4/15/17 01:29:19 35.2 0 51.35 0
4/15/17 01:24:22 35.02 0 51.46 0.13
4/15/17 01:19:19 35.02 0 51.29 0
4/15/17 01:14:19 35.6 0 51.24 0
4/15/17 01:09:20 31.69 0 51.35 0
4/15/17 01:04:20 35.53 0 51.35 0
4/15/17 00:59:20 35.94 0 51.46 0.39
4/15/17 00:54:21 35.71 0 51.41 0
4/15/17 00:49:21 36.66 0 51.35 0
4/15/17 00:44:21 35.49 0 51.41 0
4/15/17 00:39:21 30.59 0 51.58 0
4/15/17 00:34:22 36.21 0 51.46 0
4/15/17 00:29:22 35.83 0 51.46 0
4/15/17 00:24:22 36.28 0 51.52 0.26
4/15/17 00:19:23 36.83 0 51.58 0
4/15/17 00:14:23 36.88 0 51.74 0
4/15/17 00:09:23 35.99 0 51.63 0
4/15/17 00:04:23 36.88 0 51.74 0.26
4/14/17 23:59:27 35.9 0 51.69 0
4/14/17 23:54:24 36.79 0 51.8 0
4/14/17 23:49:24 36.6 0 51.69 0
4/14/17 23:44:24 37.47 0 51.74 0
4/14/17 23:39:25 38.2 0 51.86 0
4/14/17 23:34:25 37.65 0 51.8 0
4/14/17 23:29:25 35.96 0 52.08 0
4/14/17 23:24:26 35.51 0 52.03 0
4/14/17 23:19:26 37.14 0 52.08 0
4/14/17 23:14:26 36.89 0 52.31 0
4/14/17 23:09:26 37.19 0 52.25 0
4/14/17 23:04:27 37.49 0 52.53 0.39
4/14/17 22:59:27 38.99 0 52.93 0
4/14/17 22:54:27 38.48 0 52.81 0
4/14/17 22:49:38 36.43 0 52.93 0
4/14/17 22:44:28 38.03 0 53.09 0
4/14/17 22:39:28 38.52 0 53.32 0
4/14/17 22:34:28 39.72 0 53.43 0
4/14/17 22:29:29 39.56 0 53.6 0
4/14/17 22:24:29 39.38 0 54.05 0
4/14/17 22:19:29 39.37 0 54.56 0
4/14/17 22:14:35 41.71 0 54.84 0
4/14/17 22:09:30 41.03 0 55.18 0
4/14/17 22:04:30 41.08 0 55.34 0.39
4/14/17 21:59:30 41.27 0 55.79 0.13
4/14/17 21:54:31 43.2 0 56.02 0
4/14/17 21:49:39 41.15 0 56.24 0
4/14/17 21:44:36 41.39 0 56.36 0
4/14/17 21:39:31 42.02 0 56.69 0
4/14/17 21:34:32 42.24 0 57.09 0.26
4/14/17 21:29:32 42.33 0 57.2 0.39
4/14/17 21:24:32 42.52 0 57.48 0.13
4/14/17 21:19:32 43.16 0 57.54 0
4/14/17 21:14:33 43.96 0 57.48 0.66
4/14/17 21:09:33 43.43 0 57.76 0
4/14/17 21:04:33 42.9 0 57.88 0.53
4/14/17 20:59:34 43.64 0 57.93 0.26
4/14/17 20:54:34 42.27 0 58.16 0
4/14/17 20:49:39 43.85 0 58.27 0
4/14/17 20:44:34 43.53 0 58.38 0
4/14/17 20:39:35 45.01 0 58.38 0
4/14/17 20:34:35 46.68 0 58.38 0.66
4/14/17 20:29:35 44.64 0 58.66 0.13
4/14/17 20:24:35 47.28 0 58.72 0
4/14/17 20:19:36 47.64 0 59.39 0.79
4/14/17 20:14:36 50.64 0 59.96 0.13
4/14/17 20:09:36 46.76 0 60.07 0.92
4/14/17 20:04:36 46.22 0 60.58 3.42
4/14/17 19:59:37 46.88 0 60.91 9.98
4/14/17 19:54:37 47.42 0 61.03 23.25
4/14/17 19:49:37 47.91 0 61.76 42.3
4/14/17 19:44:38 48.97 0 61.98 61.62
4/14/17 19:39:38 48.89 0 62.32 75.67
4/14/17 19:34:38 49.1 0 62.66 85.13
4/14/17 19:29:38 49.97 0 64.79 91.18
4/14/17 19:24:39 48.33 0 64.74 95.77
4/14/17 19:19:39 51.38 0 64.91 98.67
4/14/17 19:14:39 51.12 0 64.85 101.29
4/14/17 19:09:39 50.98 0 65.3 103.53
4/14/17 19:04:40 58.79 0 65.19 104.97
4/14/17 18:59:40 51.6 0 65.41 105.63
4/14/17 18:54:40 52.45 0 65.36 106.55
4/14/17 18:49:40 52.73 0 66.03 107.86
4/14/17 18:44:41 52.05 0 65.86 108.26
4/14/17 18:39:41 52.6 0 66.2 108.91
4/14/17 18:34:41 52.78 0 66.03 109.83
4/14/17 18:29:46 55.47 0 65.81 110.49
4/14/17 18:24:42 55.95 0 66.37 110.49
4/14/17 18:19:42 55.23 0 66.48 111.28
4/14/17 18:14:42 57.9 0 66.87 112.46
4/14/17 18:09:42 57.61 0 67.38 114.17
4/14/17 18:04:43 58.68 0 68.06 115.61
4/14/17 17:59:43 60.63 48.8281 68.11 116.4
4/14/17 17:54:43 60.67 0 67.55 117.06
4/14/17 17:49:43 60.7 24.4141 68.73 118.24
4/14/17 17:44:45 70.59 488.281 69.69 118.37
4/14/17 17:39:44 74.25 512.695 71.09 118.5
4/14/17 17:34:44 66.85 488.281 72.5 118.9
4/14/17 17:29:44 68.54 512.695 69.41 118.77
4/14/17 17:24:45 68.21 488.281 72.61 118.77
4/14/17 17:19:45 66.49 537.109 72.84 118.37
4/14/17 17:14:45 61.98 561.523 70.7 118.9
4/14/17 17:09:45 82.79 610.352 69.74 118.63
4/14/17 17:04:51 74.91 610.352 68.56 119.16
4/14/17 16:59:46 70.52 683.594 70.81 118.5
4/14/17 16:54:46 67.65 683.594 71.6 117.98
4/14/17 16:49:46 69.2 756.836 72.05 117.71
4/14/17 16:44:47 79.67 756.836 74.86 118.24
4/14/17 16:39:47 71.26 756.836 78.46 119.03
4/14/17 16:34:47 75.57 219.727 75.37 114.3
4/14/17 16:29:47 76.39 805.664 76.55 116.93
4/14/17 16:24:48 70.84 756.836 77.79 117.19
4/14/17 16:19:48 80.33 830.078 70.53 117.32
4/14/17 16:14:48 90.87 781.25 72.16 116.4
4/14/17 16:09:48 88.55 781.25 81.89 116.01
4/14/17 16:04:49 79.86 781.25 77.28 116.14
4/14/17 15:59:49 71.86 830.078 79.02 117.06
4/14/17 15:54:49 70.02 830.078 78.46 117.58
4/14/17 15:49:49 87.12 830.078 76.49 119.29
4/14/17 15:44:49 66.12 415.039 74.64 116.93
4/14/17 15:39:50 68.23 268.555 75.99 113.77
4/14/17 15:34:50 98.74 634.766 76.66 116.93
4/14/17 15:29:50 80.92 390.625 75.09 111.54
4/14/17 15:24:50 91.82 903.32 77.39 115.22
4/14/17 15:19:51 99.52 927.734 76.44 115.61
4/14/17 15:14:51 90.2 927.734 71.15 116.01
4/14/17 15:09:51 79.86 903.32 80.66 116.66
4/14/17 15:04:51 84.56 952.148 78.69 114.96
4/14/17 15:00:07 77.48 976.562 78.57 115.22
4/14/17 14:54:52 71.84 976.562 79.87 115.22
4/14/17 14:49:57 84.15 1000.98 73.68 115.74
4/14/17 14:44:52 90.85 1049.8 80.82 115.48
4/14/17 14:39:53 93.09 976.562 81.5 115.09
4/14/17 14:34:58 89.39 1049.8 83.86 114.69
4/14/17 14:29:53 83.19 1147.46 82.4 113.64
4/14/17 14:24:53 113.53 1147.46 83.36 113.77
4/14/17 14:19:53 84.6 561.523 83.86 112.59
4/14/17 14:14:54 98.57 927.734 85.1 115.74
4/14/17 14:09:54 102.28 830.078 76.77 114.82
4/14/17 14:04:54 106.42 1049.8 77.96 113.64
4/14/17 13:59:54 105.35 1171.88 83.13 114.17
4/14/17 13:54:55 88.04 1147.46 84.82 114.3
4/14/17 13:49:55 101.7 756.836 84.48 112.85
4/14/17 13:44:55 88.85 1196.29 80.94 111.67
4/14/17 13:39:55 85.51 1025.39 84.31 114.3
4/14/17 13:34:56 117.2 1171.88 82.68 115.35
4/14/17 13:29:56 86.78 781.25 75.76 113.9
4/14/17 13:24:56 85.01 1245.12 78.12 117.19
4/14/17 13:19:56 67.61 732.422 76.89 116.93
4/14/17 13:14:57 79.53 488.281 75.93 116.27
4/14/17 13:09:57 74.98 512.695 77.51 116.66
4/14/17 13:04:57 92.02 830.078 75.65 121.52
4/14/17 12:59:57 77.79 732.422 75.65 120.87
4/14/17 12:54:58 72.42 341.797 73.79 117.32
4/14/17 12:49:58 77.31 512.695 73.96 118.11
4/14/17 12:44:58 81.28 488.281 74.69 115.61
4/14/17 12:39:58 84.58 366.211 73.4 116.14
4/14/17 12:34:59 73.87 390.625 78.86 114.69
4/14/17 12:29:59 73.8 512.695 74.36 118.63
4/14/17 12:25:04 90.94 830.078 76.27 119.16
4/14/17 12:19:59 72.18 585.938 73.23 119.16
4/14/17 12:15:00 73.33 1123.05 78.07 119.16
4/14/17 12:10:00 87.17 415.039 73.68 119.55
4/14/17 12:05:00 71.95 366.211 71.37 120.61
4/14/17 12:00:00 61.13 268.555 68.22 119.29
4/14/17 11:55:01 64.29 268.555 68.34 118.77
4/14/17 11:50:01 63.11 341.797 70.59 119.69
4/14/17 11:45:01 84.91 268.555 72.61 118.77
4/14/17 11:40:01 67.71 341.797 70.47 120.61
4/14/17 11:35:02 65.17 244.141 76.94 120.47
4/14/17 11:30:02 99.69 244.141 70.81 119.03
4/14/17 11:25:02 9.15 292.969 71.82 119.29
4/14/17 11:20:02 85.16 268.555 68.11 119.03
4/14/17 11:15:03 86.56 0 67.38 119.69
4/14/17 11:10:03 65.78 366.211 67.94 119.42
4/11/17 12:23:01 70.5 0 71.15 113.9
4/11/17 12:18:07 71.48 0 71.37 114.17
4/8/17 12:35:40 70.38 0 72.61 120.21
4/8/17 12:30:40 69.43 0 72.61 119.82
4/8/17 12:25:40 70.75 0 72.56 120.08
4/8/17 12:20:42 69.04 0 72.61 119.95
4/8/17 12:15:41 68.98 0 72.56 120.61
4/8/17 12:10:41 68.93 0 72.56 120.21
4/8/17 12:05:41 68.37 0 72.44 121
4/8/17 12:00:47 66.26 0 72.05 120.21
4/8/17 11:55:42 68.19 0 72.05 120.08
4/8/17 11:50:42 67.61 0 71.37 121.13
3/30/17 15:31:43 65.54 0 71.66 121
3/30/17 15:26:43 67.21 0 71.49 122.71
3/30/17 15:24:00 66.44 0 71.43 122.84
3/30/17 15:14:33 556 0 71.32 122.58
3/30/17 15:09:34 66.35 0 71.43 121.79
3/30/17 14:40:23 70.34 0 71.71 125.33
3/30/17 14:35:23 67.94 0 71.94 124.15
3/30/17 14:29:38 68.53 0 71.37 122.84
3/30/17 14:23:06 67.29 0 71.32 120.87
3/30/17 14:12:51 67.33 0 70.93 120.61
3/30/17 14:07:51 67.13 0 71.26 119.55
3/30/17 14:02:52 67.05 0 71.54 119.16
3/30/17 14:00:56 69.16 0 71.43 118.77
3/30/17 13:47:58 67.1 0 71.54 117.71
3/30/17 11:45:54 67.11 0 70.93 124.28
3/30/17 11:42:27 67.75 0 70.87 124.42
3/30/17 11:34:14 69.44 0 71.6 124.42
3/30/17 11:23:04 66.44 0 71.94 122.71
3/30/17 11:16:57 69.34 0 71.82 122.71
3/30/17 11:11:57 67.41 0 71.94 122.97
3/30/17 10:58:33 66.97 0 72.44 120.87
3/30/17 10:53:33 67.63 0 72.44 120.61
3/30/17 10:48:34 66.45 0 74.58 121.39
3/18/17 17:09:42 -21.79 0 39.37 112.33
3/18/17 17:04:42 -46.06 0 39.37 112.07
3/18/17 16:59:42 -32.35 0 39.93 111.01
3/18/17 16:54:43 79.48 0 40.27 112.46
3/18/17 16:49:43 -76.39 0 39.31 112.85
3/18/17 16:44:43 -37.33 0 39.88 113.77
3/18/17 16:39:43 -56.42 0 39.93 112.99
3/18/17 16:34:49 -37.17 0 39.65 113.64
3/18/17 16:29:44 -77.9 24.4141 39.88 114.04
3/18/17 16:24:44 -54.4 0 39.2 113.64
3/18/17 16:19:45 32.43 0 39.65 113.64
3/18/17 16:14:45 33.31 0 40.1 112.07
3/18/17 16:09:50 31.4 0 39.82 111.93
3/18/17 16:04:46 30.56 0 39.88 112.07
3/18/17 15:59:46 29.86 0 40.04 113.51
3/18/17 15:54:49 29.95 0 39.93 114.69
3/18/17 15:49:46 20.76 0 39.99 113.9
3/18/17 15:44:52 -9.16 0 39.76 114.43
3/18/17 15:39:47 30.86 0 40.21 115.74
3/18/17 15:34:47 30.83 0 40.1 115.35
3/18/17 15:29:48 34.43 0 40.38 114.82
3/18/17 15:24:58 30.33 0 40.66 115.48
3/18/17 15:19:48 31.18 0 40.66 115.61
3/18/17 15:14:54 33.27 0 41.22 114.43
3/18/17 15:10:02 30.5 0 40.89 115.35
3/18/17 15:04:49 31.36 0 40.94 115.61
3/18/17 14:59:53 30.06 0 40.72 115.88
3/18/17 14:54:50 30.17 0 40.16 118.24
3/18/17 14:49:55 38.48 24.4141 40.38 117.71
3/18/17 14:44:50 30.45 0 40.94 117.85
3/18/17 14:39:51 29.11 0 40.55 117.58
3/18/17 14:34:51 31.05 0 40.55 117.71
3/18/17 14:29:51 31.12 0 40.89 118.77
3/18/17 14:24:57 30.44 0 41.39 117.98
3/18/17 14:19:52 35.32 0 41.22 117.98
3/18/17 14:14:52 33.51 0 40.78 118.63
3/18/17 14:09:52 32.91 0 40.61 121.39
3/18/17 14:04:53 30.23 0 41.45 123.36
3/18/17 13:59:53 30.65 24.4141 42.52 121.92
3/18/17 13:54:53 32.13 0 41.11 119.29
3/18/17 13:49:54 30.73 0 41.68 119.03
3/18/17 13:44:54 31.78 0 41.56 118.37
3/18/17 13:39:59 30.06 0 41.45 120.34
3/18/17 13:35:00 31.57 0 40.61 118.37
3/18/17 13:29:55 34.74 0 40.55 117.85
3/18/17 13:24:55 -3.47 0 41.34 116.53
3/18/17 13:19:55 32.03 0 41.68 116.01
3/18/17 13:14:56 31.55 24.4141 42.29 115.88
3/18/17 13:09:56 31.6 0 42.24 116.14
3/18/17 13:04:56 31.18 0 42.63 117.19
3/18/17 12:59:56 32.11 0 42.74 117.19
3/18/17 12:54:57 33.71 0 42.18 117.45
3/18/17 12:49:57 35.8 0 42.18 119.16
3/18/17 12:44:57 31.25 24.4141 42.46 122.18
3/18/17 12:39:58 30.89 24.4141 42.58 121.13
3/18/17 12:34:58 30.58 0 43.42 119.42
3/18/17 12:29:58 33.74 24.4141 42.8 118.9
3/18/17 12:24:58 44.48 0 43.31 119.69
3/18/17 12:19:59 29.47 97.6563 43.53 121.92
3/18/17 12:14:59 30.53 0 42.97 121.79
3/18/17 12:09:59 31.89 0 42.52 120.47
3/18/17 12:05:00 30.69 24.4141 42.46 121.39
3/18/17 12:00:00 33.34 24.4141 42.52 121.26
3/18/17 11:55:00 31.9 24.4141 42.58 121
3/18/17 11:50:01 36.29 0 43.36 119.82
3/18/17 11:45:01 29.36 73.2422 43.76 121.92
3/18/17 11:40:01 32.04 24.4141 43.42 121.52
3/18/17 11:35:01 30.45 0 43.59 120.61
3/18/17 11:30:02 30.07 0 43.19 119.82
3/18/17 11:25:02 26.49 0 43.31 120.61
3/18/17 11:20:02 35.03 24.4141 43.14 118.9
3/18/17 11:15:03 30.51 24.4141 43.14 118.37
3/18/17 11:10:03 25.24 0 42.74 118.77
3/18/17 11:05:03 29.59 0 42.35 118.37
3/18/17 11:00:03 29.97 0 43.03 118.5
3/18/17 10:55:04 30.61 0 42.35 118.11
3/18/17 10:50:04 31.44 0 41.79 118.24
3/18/17 10:45:04 29.34 0 42.29 119.03
3/18/17 10:40:05 33.29 0 42.29 118.9
3/18/17 10:35:05 30.12 0 41.96 118.37
3/18/17 10:30:05 30.13 24.4141 42.24 120.47
3/18/17 10:25:05 29.47 0 41.62 119.42
3/18/17 10:20:06 31.18 48.8281 41.17 118.5
3/18/17 10:15:06 33.23 0 41.56 119.29
3/18/17 10:10:06 29.38 0 41.22 119.95
3/18/17 10:05:07 32.2 0 41.17 119.16
3/18/17 10:00:07 31.1 0 41.28 120.21
3/18/17 09:55:12 27.46 0 41.11 118.77
3/18/17 09:50:08 30.26 0 40.83 117.45
3/18/17 09:45:08 30.6 0 41.11 117.45
3/18/17 09:40:08 28.48 0 41.56 121.26
3/18/17 09:35:08 29.32 0 40.72 120.08
3/18/17 09:30:09 26.62 0 41 117.58
3/18/17 09:25:09 31.17 24.4141 40.61 115.88
3/18/17 09:20:09 29.21 0 41 115.61
3/18/17 09:15:10 29.91 0 40.55 117.58
3/18/17 09:10:10 28.54 0 40.33 117.98
3/18/17 09:05:10 28.83 0 40.83 119.16
3/18/17 09:00:10 29.13 0 40.38 118.5
3/18/17 08:55:11 28.51 0 40.16 118.11
3/18/17 08:50:11 28.52 0 40.49 115.09
3/18/17 08:45:11 29.64 0 40.1 115.48
3/18/17 08:40:12 30.41 0 40.21 115.09
3/18/17 08:35:12 29.56 0 40.49 115.48
3/18/17 08:30:12 29.02 0 40.16 116.66
3/18/17 08:25:13 28.26 0 40.1 114.69
3/18/17 08:20:23 28.03 0 39.82 113.9
3/18/17 08:15:13 28.97 0 39.65 107.6
3/18/17 08:10:14 29.6 0 39.65 109.18
3/18/17 08:05:14 29.57 0 39.76 110.88
3/18/17 08:00:14 29.68 0 39.48 107.34
3/18/17 07:55:14 28.91 0 39.65 105.63
3/18/17 07:50:15 28.99 0 39.99 104.58
3/18/17 07:45:15 28.81 0 39.71 99.72
3/18/17 07:40:16 29.25 0 39.88 98.53
3/18/17 07:35:15 29.96 0 39.99 96.83
3/18/17 07:30:21 29.91 0 40.55 94.72
3/18/17 07:25:21 28.24 0 39.99 95.12
3/18/17 07:20:16 29.02 0 40.16 85.13
3/18/17 07:15:17 30.02 0 40.27 70.42
3/18/17 07:10:17 29.12 0 40.61 66.35
3/18/17 07:05:17 31.43 0 40.78 62.14
3/18/17 07:00:17 31.72 0 40.78 53.34
3/18/17 06:55:18 27.38 0 40.55 35.34
3/18/17 06:50:18 30.61 0 40.61 18.39
3/18/17 06:45:18 30.69 0 41 7.49
3/18/17 06:40:19 30.44 0 40.89 2.63
3/18/17 06:35:19 29.26 0 40.94 2.1
3/18/17 06:30:19 29.78 0 40.72 1.31
3/18/17 06:25:20 28.03 0 40.61 1.31
3/18/17 06:20:20 29.35 0 40.61 1.31
3/18/17 06:15:20 29.13 0 40.38 1.58
3/18/17 06:10:20 29.4 0 40.55 1.45
3/18/17 06:05:21 30.27 0 40.1 1.18
3/18/17 06:00:26 30.14 0 39.76 1.84
3/18/17 05:55:21 25.77 0 40.1 1.31
3/18/17 05:50:22 14.63 0 39.82 1.18
3/18/17 05:45:22 28.89 0 39.54 0.92
3/18/17 05:40:22 -15.6 0 39.26 1.05
3/18/17 05:35:23 30.3 0 39.2 0.92
3/18/17 05:30:23 27.49 0 39.2 1.45
3/18/17 05:25:24 29.62 0 39.2 0.92
3/18/17 05:20:23 26.99 0 39.59 0.66
3/18/17 05:15:24 27.42 0 39.43 1.58
3/18/17 05:10:24 27.43 0 39.2 1.05
3/18/17 05:05:24 29.4 0 38.97 1.18
3/18/17 05:00:25 29.67 0 38.92 1.18
3/18/17 04:55:25 28.56 0 38.81 0.79
3/18/17 04:50:25 28.84 0 38.81 0.79
3/18/17 04:45:25 30.33 0 38.81 1.05
3/18/17 04:40:26 28.19 0 38.69 0.79
3/18/17 04:35:26 28.72 0 38.75 0.79
3/18/17 04:30:31 28.27 0 38.81 1.18
3/18/17 04:25:27 28.58 0 38.92 0.92
3/18/17 04:20:27 27.97 0 39.03 1.05
3/18/17 04:15:27 28.9 0 39.09 1.58
3/18/17 04:10:28 28.23 0 39.14 1.05
3/18/17 04:05:28 28.62 0 39.09 1.05
3/18/17 04:00:28 27 0 39.09 0.79
3/18/17 03:55:28 28.5 0 39.09 0.79
3/18/17 03:50:29 30.33 0 39.09 1.45
3/18/17 03:45:29 27.81 0 39.09 1.45
3/18/17 03:40:34 24.55 0 39.14 1.05
3/18/17 03:35:30 28.11 0 39.14 1.31
3/18/17 03:30:30 27.52 0 39.09 1.58
3/18/17 03:25:40 29.48 0 39.09 0.79
3/18/17 03:20:31 28.21 0 39.09 0.92
3/18/17 03:15:31 28.53 0 39.2 0.79
3/18/17 03:10:31 27.71 0 39.14 1.18
3/18/17 03:05:36 27.64 0 39.09 1.18
3/18/17 03:00:32 29.19 0 39.09 1.05
3/18/17 02:55:32 27.82 0 39.14 1.18
3/18/17 02:50:32 29.32 0 39.14 0.92
3/18/17 02:45:33 27.63 0 39.31 1.18
3/18/17 02:40:33 27.99 0 39.37 0.66
3/18/17 02:35:33 27.86 0 39.31 0.39
3/18/17 02:30:34 27.7 0 39.37 0.92
3/18/17 02:25:34 27.94 0 39.43 0.79
3/18/17 02:20:34 27.78 0 39.48 1.05
3/18/17 02:15:34 27.59 0 39.43 1.05
3/18/17 02:10:35 29.39 0 39.48 1.18
3/18/17 02:05:35 27.91 0 39.82 0.26
3/18/17 02:00:35 27.48 0 39.93 1.05
3/18/17 01:55:36 28.58 0 39.99 1.05
3/18/17 01:50:36 28.46 0 39.93 0.53
3/18/17 01:45:36 29.62 0 39.99 0.66
3/18/17 01:40:36 27.17 0 39.88 0.79
3/18/17 01:35:37 26.93 0 39.82 1.18
3/18/17 01:30:37 26.7 0 39.59 0.66
3/18/17 01:25:37 27.49 0 39.48 1.18
3/18/17 01:20:43 28.59 0 39.48 0.53
3/18/17 01:15:48 26.94 0 39.37 0.79
3/18/17 01:10:38 28.79 0 39.37 0.92
3/18/17 01:05:39 26.89 0 39.37 1.31
3/18/17 01:00:39 27.92 0 39.31 1.31
3/18/17 00:55:39 27.52 0 39.37 0.79
3/18/17 00:50:39 27.74 0 39.31 1.18
3/18/17 00:45:40 26.83 0 39.37 1.31
3/18/17 00:40:40 27.9 0 39.48 1.31
3/18/17 00:35:40 26.84 0 39.71 0.92
3/18/17 00:30:41 25.23 0 39.54 0.92
3/18/17 00:25:41 29.07 0 39.59 0.53
3/18/17 00:20:46 27.55 0 39.76 0.92
3/18/17 00:15:42 28.37 0 39.82 0.92
3/18/17 00:10:42 26.18 24.4141 39.88 0.79
3/18/17 00:05:42 25.15 0 39.71 0.92
3/18/17 00:00:47 26.13 0 39.65 1.31
3/17/17 23:55:43 28.04 0 39.37 0.66
3/17/17 23:50:43 27.01 0 39.14 0.92
3/17/17 23:45:43 27.38 0 39.26 0.39
3/17/17 23:40:44 26.43 0 39.14 0.92
3/17/17 23:35:44 26.82 0 39.31 0.66
3/17/17 23:30:44 23.56 0 39.2 0.53
3/17/17 23:25:44 23.74 0 39.2 0.39
3/17/17 23:20:45 24.26 0 39.14 0.13
3/17/17 23:15:45 21.46 0 39.14 0
3/17/17 23:10:45 20.15 0 39.26 0
3/17/17 23:05:51 22.87 0 39.31 0.39
3/17/17 23:00:46 21.26 0 39.31 0
3/17/17 22:55:46 17.36 0 39.09 0.39
3/17/17 22:50:47 15.84 0 39.2 0
3/17/17 22:45:47 14.88 0 39.09 0
3/17/17 22:40:47 13.18 0 38.86 0.13
3/17/17 22:35:51 15.13 0 38.86 0
3/17/17 22:30:48 11.99 0 38.92 0
3/17/17 22:25:48 13.46 0 38.97 0.26
3/17/17 22:20:48 14.11 0 38.81 0
3/17/17 22:15:49 14.49 0 38.81 0
3/17/17 22:10:49 14.26 0 39.14 0.26
3/17/17 22:05:49 13.87 0 39.82 0
3/17/17 22:00:50 15.66 0 39.93 0
3/17/17 21:55:50 14.5 0 40.04 0
3/17/17 21:50:50 16.09 0 40.16 0.26
3/17/17 21:45:55 12.68 0 40.55 0
3/17/17 21:41:01 13.91 0 40.44 0
3/17/17 21:35:51 16.03 0 40.16 0.13
3/17/17 21:30:51 12.57 0 40.16 0
3/17/17 21:25:52 15.23 0 40.21 0
3/17/17 21:20:52 17.96 0 40.49 0
3/17/17 21:15:52 18.13 0 40.66 0.39
3/17/17 21:10:52 19.11 0 40.44 0.13

Previous 1 2 3 4 5 6 7 8 9 10 11 12 13 14 15 16 17 Next